Regional Weather Roundup
Issued by NWS Albany, NY

Home | Current Version | Previous Version | Text Only | Print | Product List | Glossary On
Versions: 1 2 3 4 5 6 7 8 9 10 11 12 13 14 15 16 17 18 19 20 21 22 23 24 25 26 27
000
ASUS41 KALY 192210
RWRALY

NEW YORK STATE HOURLY WEATHER ROUNDUP
NATIONAL WEATHER SERVICE ALBANY NY
500 PM EST SUN FEB 19 2017

NOTE: "FAIR" INDICATES FEW OR NO CLOUDS BELOW 12,000 FEET WITH NO
SIGNIFICANT WEATHER AND/OR NO OBSTRUCTIONS TO VISIBILITY.

NYZ032-033-038>043-046>054-057>066-NYZ062>081-082-084-192300-
EAST


CITY           SKY/WX    TMP DP  RH WIND       PRES   REMARKS
ALBANY         PTCLDY    51  31  46 W14       29.86R
GLENS FALLS    CLOUDY    51  29  42 NW9       29.81R
POUGHKEEPSIE   CLEAR     58  26  29 W12       29.82R
NEWBURGH       CLEAR     59  30  33 W17G29    29.84R
MONTGOMERY     CLEAR     58  28  32 NW10G28   29.83R
WHITE PLAINS   CLEAR     59  27  29 NW15      29.82R
ISLIP          PTCLDY    62  32  32 W15G22    29.82R
NEW YORK CITY  PTCLDY    61  31  32 NW12      29.83R
CENTRAL PARK   CLEAR     64  28  25 W8G18     29.86R
$$

NYZ005>009-017-018-044>046-055-056-192300-
CENTRAL


CITY           SKY/WX    TMP DP  RH WIND       PRES   REMARKS
FULTON         CLEAR     48  33  56 W17G25    29.91R
SYRACUSE       PTCLDY    49  32  52 NW16G24   29.90R
ROME           CLEAR     43  33  68 NW15      29.90R
ELMIRA         CLEAR     59  28  30 NW12G21   29.90R
BINGHAMTON     CLEAR     51  30  44 NW13G22   29.88R
MONTICELLO     CLEAR     54  28  37 NW9G23    29.87R
$$

NYZ026>034-041>043-087-192300-
NORTH


CITY           SKY/WX    TMP DP  RH WIND       PRES   REMARKS
WATERTOWN      CLOUDY    42  36  79 W7        29.89R
FORT DRUM      NOT AVBL
OGDENSBURG     CLOUDY    45  32  60 NW9       29.89R
MASSENA        CLOUDY    44  30  57 W13       29.88R
SARANAC LAKE   CLOUDY    42  29  59 VRB5      29.80R
PLATTSBURGH    CLOUDY    47  29  49 NW10G20   29.83R
$$

NYZ001>004-010>016-019>021-085-192300-
WEST


CITY           SKY/WX    TMP DP  RH WIND       PRES   REMARKS
NIAGARA FALLS  CLEAR     52  33  48 NW16      29.97R
BUFFALO        PTCLDY    42  34  73 SW15      29.98R
DUNKIRK        CLEAR     46  35  65 SW14      30.01R
JAMESTOWN        N/A     48  30  49 W13       29.99R
WELLSVILLE     CLEAR     53  27  36 W17G24    29.95R
ROCHESTER      PTCLDY    56  36  47 W16       29.94R
PENN YAN       CLEAR     55  30  38 W13G24    29.93R
$$

             KEY
       WCI = WIND CHILL INDEX
       VSB = VISIBILITY
       HX  = HEAT INDEX
$$




USA.gov is the U.S. government's official web portal to all federal, state and local government web resources and services.